This is the latest recevied weather packets stored in our database for station/object KM4RT-13. If no packets are shown the sender has not sent any weather packets the latest 10 day(s).
| Time | Temp. | Humidity | Pressure | Rain* | Wind** | Luminosity | Snow |
|---|---|---|---|---|---|---|---|
| 1777929385 | 26.11° C | 40% | 1007 hPa | 0 mm | - | 438 W/m² | - |
| 1777929081 | 26.11° C | 42% | 1007.4 hPa | 0 mm | - | 449 W/m² | - |
| 1777928779 | 26.11° C | 41% | 1007.1 hPa | 0 mm | - | 460 W/m² | - |
| 1777928475 | 26.11° C | 41% | 1007.2 hPa | 0 mm | - | 478 W/m² | - |
| 1777928173 | 26.11° C | 42% | 1007.3 hPa | 0 mm | - | 488 W/m² | - |
| 1777927870 | 26.11° C | 42% | 1007.3 hPa | 0 mm | - | 487 W/m² | - |
| 1777927569 | 26.11° C | 42% | 1007.1 hPa | 0 mm | - | 93 W/m² | - |
| 1777927267 | 26.11° C | 42% | 1007.4 hPa | 0 mm | - | 532 W/m² | - |
| 1777926965 | 25.56° C | 43% | 1007.7 hPa | 0 mm | - | 102 W/m² | - |
| 1777926662 | 26.11° C | 44% | 1007.6 hPa | 0 mm | - | 548 W/m² | - |
| 1777926357 | 26.11° C | 41% | 1007.7 hPa | 0 mm | - | 576 W/m² | - |
| 1777926054 | 26.11° C | 41% | 1007.9 hPa | 0 mm | - | 584 W/m² | - |
| 1777925751 | 26.11° C | 41% | 1007.7 hPa | 0 mm | - | 592 W/m² | - |
| 1777925449 | 26.11° C | 41% | 1008.2 hPa | 0 mm | - | 610 W/m² | - |
| 1777925145 | 26.11° C | 42% | 1008 hPa | 0 mm | - | 618 W/m² | - |
| 1777924842 | 26.11° C | 41% | 1007.9 hPa | 0 mm | - | 625 W/m² | - |
| 1777924538 | 26.11° C | 42% | 1008.3 hPa | 0 mm | - | 629 W/m² | - |
| 1777924235 | 25.56° C | 41% | 1008.4 hPa | 0 mm | - | 206 W/m² | - |
| 1777923932 | 25.56° C | 41% | 1008.4 hPa | 0 mm | - | 82 W/m² | - |
| 1777923627 | 26.11° C | 41% | 1008.4 hPa | 0 mm | - | 82 W/m² | - |
| 1777923324 | 26.11° C | 43% | 1008.6 hPa | 0 mm | - | 148 W/m² | - |
| 1777923023 | 26.67° C | 42% | 1008.5 hPa | 0 mm | - | 681 W/m² | - |
| 1777922720 | 26.11° C | 41% | 1008.7 hPa | 0 mm | - | 702 W/m² | - |
| 1777922418 | 26.11° C | 43% | 1008.7 hPa | 0 mm | - | 708 W/m² | - |
| 1777922116 | 25.56° C | 44% | 1008.6 hPa | 0 mm | - | 711 W/m² | - |
* Rain latest hour (hover to see other rain measurements)
** Current wind speed in m/s (hover to see current wind gust speed)